When you browse on this site, cookies collect data to enhance your experience and personalize the content and advertising you see.
Visit our Privacy Policy to learn more. By continuing to use the site, you agree to this use of cookies and data.
  • en France
  • Liste des pays
  • À 7 jours
  • Température de l'eau
  • Carte satellitaire
  • Carte météo
  • Widgets météo
  • user-avatar
    Se connecter

    Météo par heure à Kaprun

    Ce jour, 18 Juin, Mardi

    Heure Température Précipitation Vent Pression Humidité
    00:00 +8°C° 0 mm 1 m/s 599 mmHg 91%
    01:00 +7°C° 0 mm 2 m/s 599 mmHg 89%
    02:00 +7°C° 0 mm 1 m/s 599 mmHg 89%
    03:00 +7°C° 0 mm 1 m/s 598 mmHg 89%
    04:00 +7°C° 0 mm 1 m/s 598 mmHg 89%
    05:00 +9°C° 0 mm 1 m/s 599 mmHg 85%
    06:00 +10°C° 0 mm 0 m/s 600 mmHg 81%
    07:00 +12°C° 0 mm 0 m/s 601 mmHg 76%
    08:00 +13°C° 0.2 mm 0 m/s 601 mmHg 70%
    09:00 +15°C° 0.2 mm 1 m/s 602 mmHg 64%
    10:00 +18°C° 0.2 mm 1 m/s 602 mmHg 57%
    11:00 +19°C° 0.4 mm 1 m/s 602 mmHg 54%
    12:00 +19°C° 0.4 mm 1 m/s 602 mmHg 51%
    13:00 +20°C° 0.4 mm 1 m/s 602 mmHg 48%
    14:00 +19°C° 0.5 mm 1 m/s 602 mmHg 49%
    15:00 +19°C° 0.5 mm 1 m/s 602 mmHg 51%
    16:00 +19°C° 0.5 mm 1 m/s 601 mmHg 52%
    17:00 +16°C° 0.5 mm 1 m/s 601 mmHg 63%
    18:00 +15°C° 0.5 mm 1 m/s 600 mmHg 74%
    19:00 +13°C° 0.5 mm 0 m/s 600 mmHg 84%
    20:00 +11°C° 0.3 mm 0 m/s 599 mmHg 86%
    21:00 +10°C° 0.3 mm 0 m/s 599 mmHg 88%
    22:00 +8°C° 0.3 mm 0 m/s 598 mmHg 89%
    23:00 +9°C° 0.1 mm 1 m/s 598 mmHg 89%

    Demain, 19 Juin, Mercredi

    Heure Température Précipitation Vent Pression Humidité
    00:00 +9°C° 0.1 mm 1 m/s 598 mmHg 90%
    01:00 +9°C° 0.1 mm 1 m/s 598 mmHg 90%
    02:00 +8°C° 0.1 mm 0 m/s 597 mmHg 90%
    03:00 +7°C° 0.1 mm 0 m/s 597 mmHg 90%
    04:00 +7°C° 0.1 mm 0 m/s 597 mmHg 90%
    05:00 +9°C° 0.1 mm 0 m/s 598 mmHg 86%
    06:00 +10°C° 0.1 mm 0 m/s 598 mmHg 83%
    07:00 +12°C° 0.1 mm 0 m/s 599 mmHg 79%
    08:00 +14°C° 1 mm 1 m/s 599 mmHg 78%
    09:00 +15°C° 1 mm 1 m/s 599 mmHg 76%
    10:00 +15°C° 1 mm 1 m/s 599 mmHg 75%
    11:00 +15°C° 1.2 mm 1 m/s 599 mmHg 72%
    12:00 +16°C° 1.2 mm 1 m/s 599 mmHg 70%
    13:00 +15°C° 1.2 mm 0 m/s 599 mmHg 68%
    14:00 +15°C° 0.9 mm 1 m/s 599 mmHg 70%
    15:00 +14°C° 0.9 mm 1 m/s 598 mmHg 72%
    16:00 +14°C° 0.9 mm 2 m/s 598 mmHg 75%
    17:00 +13°C° 0.2 mm 1 m/s 598 mmHg 76%
    18:00 +13°C° 0.2 mm 1 m/s 598 mmHg 78%
    19:00 +12°C° 0.2 mm 0 m/s 598 mmHg 79%
    20:00 +10°C° 0 mm 0 m/s 598 mmHg 79%
    21:00 +10°C° 0 mm 1 m/s 597 mmHg 79%
    22:00 +9°C° 0 mm 1 m/s 597 mmHg 79%
    23:00 +9°C° 0 mm 1 m/s 597 mmHg 78%

    Après-demain, 20 Juin, Jeudi

    Heure Température Précipitation Vent Pression Humidité
    00:00 +8°C° 0 mm 1 m/s 597 mmHg 76%
    01:00 +8°C° 0 mm 1 m/s 597 mmHg 75%
    02:00 +8°C° 0 mm 1 m/s 596 mmHg 74%
    03:00 +8°C° 0 mm 1 m/s 596 mmHg 74%
    04:00 +7°C° 0 mm 1 m/s 596 mmHg 74%
    05:00 +10°C° 0 mm 1 m/s 597 mmHg 69%
    06:00 +12°C° 0 mm 1 m/s 598 mmHg 65%
    07:00 +13°C° 0 mm 0 m/s 599 mmHg 60%
    08:00 +16°C° 0 mm 1 m/s 600 mmHg 55%
    09:00 +18°C° 0 mm 1 m/s 600 mmHg 49%
    10:00 +19°C° 0 mm 1 m/s 601 mmHg 44%
    11:00 +19°C° 0 mm 2 m/s 601 mmHg 43%
    12:00 +19°C° 0 mm 2 m/s 601 mmHg 41%
    13:00 +20°C° 0 mm 2 m/s 600 mmHg 40%
    14:00 +19°C° 0.9 mm 2 m/s 600 mmHg 48%
    15:00 +18°C° 0.9 mm 2 m/s 599 mmHg 55%
    16:00 +17°C° 0.9 mm 2 m/s 599 mmHg 63%
    17:00 +15°C° 1.1 mm 2 m/s 598 mmHg 72%
    18:00 +13°C° 1.1 mm 2 m/s 598 mmHg 82%
    19:00 +12°C° 1.1 mm 2 m/s 598 mmHg 92%
    20:00 +11°C° 0.3 mm 1 m/s 598 mmHg 94%
    21:00 +10°C° 0.3 mm 1 m/s 598 mmHg 96%
    22:00 +9°C° 0.3 mm 1 m/s 598 mmHg 98%
    23:00 +9°C° 0.1 mm 1 m/s 598 mmHg 97%

    21 Juin, Vendredi

    Heure Température Précipitation Vent Pression Humidité
    00:00 +9°C° 0.1 mm 1 m/s 598 mmHg 95%
    01:00 +9°C° 0.1 mm 1 m/s 598 mmHg 94%
    02:00 +8°C° 0 mm 1 m/s 597 mmHg 94%
    03:00 +8°C° 0 mm 1 m/s 597 mmHg 93%
    04:00 +8°C° 0 mm 1 m/s 597 mmHg 92%
    05:00 +9°C° 0 mm 1 m/s 598 mmHg 90%
    06:00 +10°C° 0 mm 1 m/s 598 mmHg 88%
    07:00 +11°C° 0 mm 1 m/s 599 mmHg 85%
    08:00 +11°C° 0.1 mm 1 m/s 599 mmHg 84%
    09:00 +11°C° 0.1 mm 1 m/s 599 mmHg 83%
    10:00 +11°C° 0.1 mm 1 m/s 599 mmHg 83%
    11:00 +12°C° 0.2 mm 1 m/s 599 mmHg 79%
    12:00 +13°C° 0.2 mm 1 m/s 599 mmHg 75%
    13:00 +14°C° 0.2 mm 1 m/s 600 mmHg 71%
    14:00 +14°C° 0.5 mm 1 m/s 599 mmHg 74%
    15:00 +14°C° 0.5 mm 1 m/s 599 mmHg 77%
    16:00 +14°C° 0.5 mm 1 m/s 599 mmHg 79%
    17:00 +13°C° 1.1 mm 1 m/s 599 mmHg 84%
    18:00 +12°C° 1.1 mm 1 m/s 599 mmHg 88%
    19:00 +11°C° 1.1 mm 1 m/s 599 mmHg 93%
    20:00 +11°C° 1.4 mm 1 m/s 599 mmHg 93%
    21:00 +10°C° 1.4 mm 1 m/s 599 mmHg 93%
    22:00 +10°C° 1.4 mm 1 m/s 599 mmHg 93%
    23:00 +9°C° 0.2 mm 1 m/s 599 mmHg 93%

    22 Juin, Samedi

    Heure Température Précipitation Vent Pression Humidité
    00:00 +9°C° 0.2 mm 1 m/s 599 mmHg 93%
    01:00 +9°C° 0.2 mm 1 m/s 599 mmHg 94%
    02:00 +8°C° 0 mm 1 m/s 598 mmHg 93%
    03:00 +7°C° 0 mm 0 m/s 598 mmHg 93%
    04:00 +6°C° 0 mm 0 m/s 598 mmHg 93%
    05:00 +7°C° 0 mm 0 m/s 598 mmHg 91%
    06:00 +9°C° 0 mm 0 m/s 599 mmHg 88%
    07:00 +10°C° 0 mm 0 m/s 599 mmHg 86%
    08:00 +12°C° 0.4 mm 1 m/s 600 mmHg 84%
    09:00 +13°C° 0.4 mm 1 m/s 600 mmHg 82%
    10:00 +14°C° 0.4 mm 2 m/s 600 mmHg 80%
    11:00 +14°C° 1.3 mm 2 m/s 600 mmHg 80%
    12:00 +15°C° 1.3 mm 2 m/s 600 mmHg 80%
    13:00 +15°C° 1.3 mm 2 m/s 600 mmHg 80%
    14:00 +15°C° 1.7 mm 2 m/s 600 mmHg 81%
    15:00 +14°C° 1.7 mm 2 m/s 600 mmHg 83%
    16:00 +14°C° 1.7 mm 2 m/s 599 mmHg 85%
    17:00 +13°C° 1.4 mm 1 m/s 599 mmHg 88%
    18:00 +12°C° 1.4 mm 1 m/s 599 mmHg 91%
    19:00 +11°C° 1.4 mm 1 m/s 599 mmHg 94%
    20:00 +10°C° 0.3 mm 1 m/s 598 mmHg 95%
    21:00 +9°C° 0.3 mm 1 m/s 598 mmHg 96%
    22:00 +7°C° 0.3 mm 0 m/s 598 mmHg 97%
    23:00 +8°C° 0.2 mm 1 m/s 598 mmHg 97%

    23 Juin, Dimanche

    Heure Température Précipitation Vent Pression Humidité
    00:00 +8°C° 0.2 mm 1 m/s 599 mmHg 97%
    01:00 +8°C° 0.2 mm 1 m/s 599 mmHg 97%
    02:00 +8°C° 0 mm 1 m/s 599 mmHg 95%
    03:00 +7°C° 0 mm 1 m/s 598 mmHg 94%
    04:00 +7°C° 0 mm 1 m/s 598 mmHg 92%
    05:00 +8°C° 0 mm 1 m/s 599 mmHg 88%
    06:00 +9°C° 0 mm 0 m/s 600 mmHg 83%
    07:00 +10°C° 0 mm 0 m/s 601 mmHg 78%
    08:00 +12°C° 0 mm 0 m/s 602 mmHg 69%
    09:00 +15°C° 0 mm 1 m/s 602 mmHg 60%
    10:00 +18°C° 0 mm 1 m/s 603 mmHg 51%
    11:00 +18°C° 0.1 mm 1 m/s 603 mmHg 49%
    12:00 +19°C° 0.1 mm 1 m/s 603 mmHg 47%
    13:00 +20°C° 0.1 mm 1 m/s 604 mmHg 45%
    14:00 +19°C° 0.2 mm 1 m/s 603 mmHg 48%
    15:00 +19°C° 0.2 mm 1 m/s 603 mmHg 51%
    16:00 +18°C° 0.2 mm 2 m/s 603 mmHg 53%
    17:00 +18°C° 0.1 mm 1 m/s 603 mmHg 62%
    18:00 +16°C° 0.1 mm 1 m/s 603 mmHg 72%
    19:00 +15°C° 0.1 mm 1 m/s 602 mmHg 81%
    20:00 +13°C° 0 mm 1 m/s 602 mmHg 85%
    21:00 +11°C° 0 mm 1 m/s 602 mmHg 89%
    22:00 +9°C° 0 mm 1 m/s 601 mmHg 93%
    23:00 +9°C° 0 mm 1 m/s 601 mmHg 91%
    Voir plus